Time,TemperatureF,DewpointF,PressureIn,WindDirection,WindDirectionDegrees,WindSpeedMPH,WindSpeedGustMPH,Humidity,HourlyPrecipIn,Conditions,Clouds,dailyrainin,SoftwareType,DateUTC
2013-03-07 00:00:00,33.5,31.4,30.17,ENE,60,0.0,0.0,92,0.00,,---,0.00,VWS V14.01,2013-03-07 05:00:00,
2013-03-07 00:01:00,33.5,31.4,30.17,ENE,60,0.0,0.0,92,0.00,,---,0.00,VWS V14.01,2013-03-07 05:01:00,
2013-03-07 00:06:00,33.4,31.3,30.17,ENE,60,0.0,0.0,92,0.00,,---,0.00,VWS V14.01,2013-03-07 05:06:00,
2013-03-07 00:11:00,33.3,31.2,30.17,ENE,60,0.0,0.0,92,0.00,,---,0.00,VWS V14.01,2013-03-07 05:11:00,
2013-03-07 00:16:00,33.3,31.2,30.17,ENE,60,0.0,0.0,92,0.00,,---,0.00,VWS V14.01,2013-03-07 05:16:00,
2013-03-07 00:21:00,33.2,31.1,30.17,ENE,60,0.0,0.0,92,0.00,,---,0.00,VWS V14.01,2013-03-07 05:21:00,
2013-03-07 00:26:00,33.2,31.1,30.17,ENE,60,0.0,0.0,92,0.00,,---,0.00,VWS V14.01,2013-03-07 05:26:00,
2013-03-07 00:31:00,33.1,31.0,30.17,ENE,60,0.0,0.0,92,0.00,,---,0.00,VWS V14.01,2013-03-07 05:31:00,
2013-03-07 00:36:00,33.1,31.3,30.17,ENE,60,0.0,0.0,93,0.00,,---,0.00,VWS V14.01,2013-03-07 05:36:00,
2013-03-07 00:41:00,33.1,31.3,30.17,ENE,60,0.0,0.0,93,0.00,,---,0.00,VWS V14.01,2013-03-07 05:41:00,
2013-03-07 00:46:00,33.0,31.2,30.18,ENE,60,0.0,0.0,93,0.00,,---,0.00,VWS V14.01,2013-03-07 05:46:00,
2013-03-07 00:51:00,33.0,31.2,30.18,ENE,60,0.0,0.0,93,0.00,,---,0.00,VWS V14.01,2013-03-07 05:51:00,
2013-03-07 00:56:00,33.0,31.2,30.18,ENE,60,0.0,0.0,93,0.00,,---,0.00,VWS V14.01,2013-03-07 05:56:00,
2013-03-07 01:01:00,32.9,31.1,30.18,ENE,60,0.0,0.0,93,0.00,,---,0.00,VWS V14.01,2013-03-07 06:01:00,
2013-03-07 01:06:00,32.9,31.4,30.18,ENE,60,0.0,0.0,94,0.00,,---,0.00,VWS V14.01,2013-03-07 06:06:00,
2013-03-07 01:11:00,33.0,31.5,30.18,ENE,60,0.0,0.0,94,0.00,,---,0.00,VWS V14.01,2013-03-07 06:11:00,
2013-03-07 01:16:00,33.1,31.6,30.19,ENE,60,0.0,0.0,94,0.00,,---,0.00,VWS V14.01,2013-03-07 06:16:00,
2013-03-07 01:21:00,33.1,31.6,30.19,ENE,60,0.0,0.0,94,0.00,,---,0.00,VWS V14.01,2013-03-07 06:21:00,
2013-03-07 01:26:00,33.1,31.6,30.19,ENE,60,0.0,0.0,94,0.00,,---,0.00,VWS V14.01,2013-03-07 06:26:00,
2013-03-07 01:31:00,33.0,31.5,30.19,ENE,60,0.0,0.0,94,0.00,,---,0.00,VWS V14.01,2013-03-07 06:31:00,
2013-03-07 01:36:00,33.0,31.5,30.19,ENE,60,0.0,0.0,94,0.00,,---,0.00,VWS V14.01,2013-03-07 06:36:00,
2013-03-07 01:41:00,33.0,31.5,30.19,ENE,60,0.0,1.5,94,0.00,,---,0.00,VWS V14.01,2013-03-07 06:41:00,
2013-03-07 01:46:00,33.0,31.5,30.19,ENE,60,0.0,1.5,94,0.00,,---,0.00,VWS V14.01,2013-03-07 06:46:00,
2013-03-07 01:51:00,33.1,31.6,30.19,ENE,60,0.0,1.5,94,0.00,,---,0.00,VWS V14.01,2013-03-07 06:51:00,
2013-03-07 01:56:00,33.2,31.7,30.19,ENE,60,0.0,1.5,94,0.00,,---,0.00,VWS V14.01,2013-03-07 06:56:00,
2013-03-07 02:01:00,33.2,31.7,30.19,ENE,60,0.0,0.0,94,0.00,,---,0.00,VWS V14.01,2013-03-07 07:01:00,
2013-03-07 02:06:00,33.3,31.8,30.19,ENE,60,0.0,0.0,94,0.00,,---,0.00,VWS V14.01,2013-03-07 07:06:00,
2013-03-07 02:11:00,33.3,31.8,30.19,ENE,60,0.0,1.5,94,0.00,,---,0.00,VWS V14.01,2013-03-07 07:11:00,
2013-03-07 02:16:00,33.4,32.1,30.19,NNE,30,0.0,4.5,95,0.00,,---,0.00,VWS V14.01,2013-03-07 07:16:00,
2013-03-07 02:21:00,33.5,32.2,30.19,NNE,30,0.0,3.0,95,0.00,,---,0.00,VWS V14.01,2013-03-07 07:21:00,
2013-03-07 02:27:00,33.5,32.2,30.19,NNE,30,0.0,3.0,95,0.00,,---,0.00,VWS V14.01,2013-03-07 07:27:00,
2013-03-07 02:32:00,33.6,32.3,30.19,NNE,30,0.0,1.5,95,0.00,,---,0.00,VWS V14.01,2013-03-07 07:32:00,
2013-03-07 02:37:00,33.6,32.3,30.19,NNE,30,0.0,3.0,95,0.00,,---,0.00,VWS V14.01,2013-03-07 07:37:00,
2013-03-07 02:42:00,33.6,32.3,30.19,NNE,30,1.5,1.5,95,0.00,,---,0.00,VWS V14.01,2013-03-07 07:42:00,
2013-03-07 02:47:00,33.6,32.3,30.18,NNE,30,0.0,1.5,95,0.00,,---,0.00,VWS V14.01,2013-03-07 07:47:00,
2013-03-07 02:52:00,33.6,32.3,30.18,NNE,26,1.5,4.5,95,0.00,,---,0.00,VWS V14.01,2013-03-07 07:52:00,
2013-03-07 02:57:00,33.7,32.4,30.18,NNE,26,0.0,4.5,95,0.00,,---,0.00,VWS V14.01,2013-03-07 07:57:00,
2013-03-07 03:02:00,33.7,32.4,30.18,NNE,16,0.0,1.5,95,0.00,,---,0.00,VWS V14.01,2013-03-07 08:02:00,
2013-03-07 03:07:00,33.7,32.4,30.18,ENE,62,1.5,4.5,95,0.00,,---,0.00,VWS V14.01,2013-03-07 08:07:00,
2013-03-07 03:12:00,33.7,32.4,30.18,NE,53,1.5,3.0,95,0.00,,---,0.00,VWS V14.01,2013-03-07 08:12:00,
2013-03-07 03:17:00,33.7,32.4,30.18,ENE,66,3.0,4.5,95,0.00,,---,0.00,VWS V14.01,2013-03-07 08:17:00,
2013-03-07 03:22:00,33.8,32.5,30.18,ENE,63,1.5,4.5,95,0.00,,---,0.00,VWS V14.01,2013-03-07 08:22:00,
2013-03-07 03:27:00,33.7,32.4,30.18,ENE,69,0.0,7.5,95,0.00,,---,0.00,VWS V14.01,2013-03-07 08:27:00,
2013-03-07 03:32:00,33.8,32.5,30.19,NE,38,9.0,9.0,95,0.00,,---,0.00,VWS V14.01,2013-03-07 08:32:00,
2013-03-07 03:37:00,33.7,32.4,30.19,NE,54,1.5,9.0,95,0.00,,---,0.00,VWS V14.01,2013-03-07 08:37:00,
2013-03-07 03:42:00,33.7,32.4,30.19,ENE,62,0.0,6.0,95,0.00,,---,0.00,VWS V14.01,2013-03-07 08:42:00,
2013-03-07 03:47:00,33.7,32.4,30.19,NE,41,3.0,6.0,95,0.00,,---,0.00,VWS V14.01,2013-03-07 08:47:00,
2013-03-07 03:52:00,33.6,32.3,30.19,NE,39,1.5,3.0,95,0.00,,---,0.00,VWS V14.01,2013-03-07 08:52:00,
2013-03-07 03:57:00,33.6,32.3,30.19,NNE,30,1.5,4.5,95,0.00,,---,0.00,VWS V14.01,2013-03-07 08:57:00,
2013-03-07 04:02:00,33.6,32.3,30.20,ENE,68,1.5,4.5,95,0.00,,---,0.00,VWS V14.01,2013-03-07 09:02:00,
2013-03-07 04:07:00,33.6,32.3,30.20,East,80,3.0,4.5,95,0.00,,---,0.00,VWS V14.01,2013-03-07 09:07:00,
2013-03-07 04:12:00,33.5,32.2,30.20,East,80,0.0,4.5,95,0.00,,---,0.00,VWS V14.01,2013-03-07 09:12:00,
2013-03-07 04:17:00,33.5,32.2,30.20,NE,54,3.0,4.5,95,0.00,,---,0.00,VWS V14.01,2013-03-07 09:17:00,
2013-03-07 04:22:00,33.5,32.2,30.20,NE,54,0.0,3.0,95,0.00,,---,0.00,VWS V14.01,2013-03-07 09:22:00,
2013-03-07 04:27:00,33.4,32.1,30.20,NE,54,1.5,3.0,95,0.00,,---,0.00,VWS V14.01,2013-03-07 09:27:00,
2013-03-07 04:32:00,33.4,32.1,30.20,NE,54,0.0,3.0,95,0.00,,---,0.00,VWS V14.01,2013-03-07 09:32:00,
2013-03-07 04:37:00,33.3,32.0,30.20,NE,42,1.5,4.5,95,0.00,,---,0.00,VWS V14.01,2013-03-07 09:37:00,
2013-03-07 04:42:00,33.3,32.0,30.20,NNE,33,1.5,4.5,95,0.00,,---,0.00,VWS V14.01,2013-03-07 09:42:00,
2013-03-07 04:47:00,33.3,31.8,30.20,NE,38,1.5,4.5,94,0.00,,---,0.00,VWS V14.01,2013-03-07 09:47:00,
2013-03-07 04:52:00,33.2,31.7,30.20,NE,38,0.0,0.0,94,0.00,,---,0.00,VWS V14.01,2013-03-07 09:52:00,
2013-03-07 04:57:00,33.1,31.6,30.20,NE,53,0.0,6.0,94,0.00,,---,0.00,VWS V14.01,2013-03-07 09:57:00,
2013-03-07 05:02:00,33.1,31.6,30.20,NNE,21,1.5,4.5,94,0.00,,---,0.00,VWS V14.01,2013-03-07 10:02:00,
2013-03-07 05:08:00,33.1,31.6,30.20,NNE,30,0.0,4.5,94,0.00,,---,0.00,VWS V14.01,2013-03-07 10:08:00,
2013-03-07 05:13:00,33.1,31.6,30.20,NNE,28,0.0,4.5,94,0.00,,---,0.00,VWS V14.01,2013-03-07 10:13:00,
2013-03-07 05:18:00,33.1,31.6,30.20,NNE,28,0.0,4.5,94,0.00,,---,0.00,VWS V14.01,2013-03-07 10:18:00,
2013-03-07 05:22:00,33.0,31.5,30.20,NNE,28,0.0,0.0,94,0.00,,---,0.00,VWS V14.01,2013-03-07 10:22:00,
2013-03-07 05:27:00,32.9,31.4,30.20,NNE,29,0.0,3.0,94,0.00,,---,0.00,VWS V14.01,2013-03-07 10:27:00,
2013-03-07 05:32:00,32.9,31.4,30.20,NNE,28,0.0,0.0,94,0.00,,---,0.00,VWS V14.01,2013-03-07 10:32:00,
2013-03-07 05:38:00,32.9,31.4,30.20,NNE,29,0.0,1.5,94,0.00,,---,0.00,VWS V14.01,2013-03-07 10:38:00,
2013-03-07 05:43:00,32.9,31.6,30.19,NNE,28,0.0,1.5,95,0.00,,---,0.00,VWS V14.01,2013-03-07 10:43:00,
2013-03-07 05:48:00,32.9,31.6,30.19,NNE,29,0.0,4.5,95,0.00,,---,0.00,VWS V14.01,2013-03-07 10:48:00,
2013-03-07 05:53:00,32.9,31.6,30.19,NNE,29,1.5,3.0,95,0.00,,---,0.00,VWS V14.01,2013-03-07 10:53:00,
2013-03-07 05:58:00,32.9,31.6,30.19,NNE,29,0.0,3.0,95,0.00,,---,0.00,VWS V14.01,2013-03-07 10:58:00,
2013-03-07 06:03:00,32.9,31.6,30.19,NNE,29,0.0,0.0,95,0.00,,---,0.00,VWS V14.01,2013-03-07 11:03:00,
2013-03-07 06:08:00,33.0,31.7,30.19,NNE,19,0.0,4.5,95,0.00,,---,0.00,VWS V14.01,2013-03-07 11:08:00,
2013-03-07 06:13:00,33.0,31.7,30.19,NNE,26,1.5,4.5,95,0.00,,---,0.00,VWS V14.01,2013-03-07 11:13:00,
2013-03-07 06:18:00,33.0,31.7,30.19,NE,43,0.0,4.5,95,0.00,,---,0.00,VWS V14.01,2013-03-07 11:18:00,
2013-03-07 06:23:00,33.0,31.7,30.19,NE,38,0.0,3.0,95,0.00,,---,0.00,VWS V14.01,2013-03-07 11:23:00,
2013-03-07 06:28:00,33.0,31.7,30.20,NE,38,0.0,3.0,95,0.00,,---,0.00,VWS V14.01,2013-03-07 11:28:00,
2013-03-07 06:33:00,32.9,31.6,30.20,NNE,26,0.0,4.5,95,0.00,,---,0.00,VWS V14.01,2013-03-07 11:33:00,
2013-03-07 06:38:00,32.9,31.6,30.20,NNE,26,0.0,4.5,95,0.00,,---,0.00,VWS V14.01,2013-03-07 11:38:00,
2013-03-07 06:43:00,32.9,31.6,30.20,NNE,26,0.0,0.0,95,0.00,,---,0.00,VWS V14.01,2013-03-07 11:43:00,
2013-03-07 06:48:00,32.9,31.6,30.20,NNE,26,0.0,0.0,95,0.00,,---,0.00,VWS V14.01,2013-03-07 11:48:00,
2013-03-07 06:53:00,32.9,31.6,30.20,NNE,26,0.0,1.5,95,0.00,,---,0.00,VWS V14.01,2013-03-07 11:53:00,
2013-03-07 06:58:00,32.8,31.5,30.20,NNE,26,0.0,1.5,95,0.00,,---,0.00,VWS V14.01,2013-03-07 11:58:00,
2013-03-07 07:03:00,32.8,31.5,30.20,NNE,26,0.0,1.5,95,0.00,,---,0.00,VWS V14.01,2013-03-07 12:03:00,
2013-03-07 07:08:00,32.8,31.5,30.20,NNE,26,0.0,1.5,95,0.00,,---,0.00,VWS V14.01,2013-03-07 12:08:00,
2013-03-07 07:13:00,32.8,31.5,30.21,NNE,26,0.0,0.0,95,0.00,,---,0.00,VWS V14.01,2013-03-07 12:13:00,
2013-03-07 07:18:00,32.8,31.5,30.21,NNE,26,0.0,0.0,95,0.00,,---,0.00,VWS V14.01,2013-03-07 12:18:00,
2013-03-07 07:23:00,32.9,31.6,30.21,NNE,26,0.0,0.0,95,0.00,,---,0.00,VWS V14.01,2013-03-07 12:23:00,
2013-03-07 07:28:00,32.9,31.6,30.21,NNE,26,0.0,0.0,95,0.00,,---,0.00,VWS V14.01,2013-03-07 12:28:00,
2013-03-07 07:33:00,32.9,31.6,30.21,NNE,26,0.0,0.0,95,0.00,,---,0.00,VWS V14.01,2013-03-07 12:33:00,
2013-03-07 07:38:00,33.1,31.8,30.21,NNE,26,0.0,0.0,95,0.00,,---,0.00,VWS V14.01,2013-03-07 12:38:00,
2013-03-07 07:43:00,33.2,31.9,30.22,NNE,26,0.0,0.0,95,0.00,,---,0.00,VWS V14.01,2013-03-07 12:43:00,
2013-03-07 07:48:00,33.3,32.0,30.22,NNE,26,0.0,1.5,95,0.00,,---,0.00,VWS V14.01,2013-03-07 12:48:00,
2013-03-07 07:53:00,33.4,32.1,30.22,NNE,26,0.0,3.0,95,0.00,,---,0.00,VWS V14.01,2013-03-07 12:53:00,
2013-03-07 07:58:00,33.6,32.3,30.22,NNE,26,1.5,3.0,95,0.00,,---,0.00,VWS V14.01,2013-03-07 12:58:00,
2013-03-07 08:03:00,33.8,32.5,30.22,NNE,21,1.5,4.5,95,0.00,,---,0.00,VWS V14.01,2013-03-07 13:03:00,
2013-03-07 08:08:00,34.1,32.6,30.22,NNE,31,0.0,0.0,94,0.00,,---,0.00,VWS V14.01,2013-03-07 13:08:00,
2013-03-07 08:13:00,34.3,32.8,30.22,NNE,31,0.0,3.0,94,0.00,,---,0.00,VWS V14.01,2013-03-07 13:13:00,
2013-03-07 08:18:00,34.5,33.0,30.22,NE,39,4.5,7.5,94,0.00,,---,0.00,VWS V14.01,2013-03-07 13:18:00,
2013-03-07 08:24:00,34.7,32.9,30.22,NE,42,6.0,6.0,93,0.00,,---,0.00,VWS V14.01,2013-03-07 13:24:00,
2013-03-07 08:29:00,34.8,33.0,30.22,NE,38,1.5,3.0,93,0.00,,---,0.00,VWS V14.01,2013-03-07 13:29:00,
2013-03-07 08:34:00,34.9,32.8,30.22,NNE,26,3.0,7.5,92,0.00,,---,0.00,VWS V14.01,2013-03-07 13:34:00,
2013-03-07 08:39:00,35.0,32.9,30.22,NNE,28,7.5,7.5,92,0.00,,---,0.00,VWS V14.01,2013-03-07 13:39:00,
2013-03-07 08:44:00,35.1,33.0,30.22,NNE,24,3.0,7.5,92,0.00,,---,0.00,VWS V14.01,2013-03-07 13:44:00,
2013-03-07 08:49:00,35.2,33.1,30.22,NE,37,1.5,1.5,92,0.00,,---,0.00,VWS V14.01,2013-03-07 13:49:00,
2013-03-07 08:54:00,35.1,32.7,30.22,NE,41,3.0,9.0,91,0.00,,---,0.00,VWS V14.01,2013-03-07 13:54:00,
2013-03-07 08:59:00,35.1,33.0,30.22,NNE,30,0.0,0.0,92,0.00,,---,0.00,VWS V14.01,2013-03-07 13:59:00,
2013-03-07 09:04:00,35.2,32.8,30.22,NE,47,3.0,6.0,91,0.00,,---,0.00,VWS V14.01,2013-03-07 14:04:00,
2013-03-07 09:09:00,35.2,32.8,30.22,NNE,28,1.5,1.5,91,0.00,,---,0.00,VWS V14.01,2013-03-07 14:09:00,
2013-03-07 09:14:00,35.2,32.8,30.22,NNE,31,1.5,6.0,91,0.00,,---,0.00,VWS V14.01,2013-03-07 14:14:00,
2013-03-07 09:19:00,35.3,32.7,30.22,NNE,26,6.0,7.5,90,0.00,,---,0.00,VWS V14.01,2013-03-07 14:19:00,
2013-03-07 09:24:00,35.2,32.6,30.22,NNE,16,0.0,9.0,90,0.00,,---,0.00,VWS V14.01,2013-03-07 14:24:00,
2013-03-07 09:29:00,35.3,32.7,30.23,NE,35,6.0,7.5,90,0.00,,---,0.00,VWS V14.01,2013-03-07 14:29:00,
2013-03-07 09:34:00,35.3,32.7,30.23,NNE,16,4.5,10.5,90,0.00,,---,0.00,VWS V14.01,2013-03-07 14:34:00,
2013-03-07 09:39:00,35.3,32.4,30.23,NNE,28,1.5,4.5,89,0.00,,---,0.00,VWS V14.01,2013-03-07 14:39:00,
2013-03-07 09:44:00,35.3,32.7,30.23,NNE,21,7.5,7.5,90,0.00,,---,0.00,VWS V14.01,2013-03-07 14:44:00,
2013-03-07 09:49:00,35.3,32.4,30.23,NE,41,4.5,6.0,89,0.00,,---,0.00,VWS V14.01,2013-03-07 14:49:00,
2013-03-07 09:54:00,35.3,32.4,30.23,NNE,28,1.5,9.0,89,0.00,,---,0.00,VWS V14.01,2013-03-07 14:54:00,
2013-03-07 09:59:00,35.5,32.6,30.23,ENE,73,1.5,1.5,89,0.00,,---,0.00,VWS V14.01,2013-03-07 14:59:00,
2013-03-07 10:04:00,35.4,32.2,30.23,NNE,16,6.0,18.0,88,0.00,,---,0.00,VWS V14.01,2013-03-07 15:04:00,
2013-03-07 10:09:00,35.1,31.9,30.23,NE,44,3.0,7.5,88,0.00,,---,0.00,VWS V14.01,2013-03-07 15:09:00,
2013-03-07 10:14:00,35.1,32.2,30.24,NE,43,3.0,9.0,89,0.00,,---,0.00,VWS V14.01,2013-03-07 15:14:00,
2013-03-07 10:19:00,35.0,32.1,30.24,NNE,33,1.5,6.0,89,0.00,,---,0.00,VWS V14.01,2013-03-07 15:19:00,
2013-03-07 10:24:00,34.9,32.0,30.24,NNE,33,4.5,9.0,89,0.00,,---,0.00,VWS V14.01,2013-03-07 15:24:00,
2013-03-07 10:29:00,34.8,31.9,30.24,NNW,345,3.0,6.0,89,0.00,,---,0.00,VWS V14.01,2013-03-07 15:29:00,
2013-03-07 10:34:00,34.8,31.9,30.24,NNE,27,0.0,6.0,89,0.00,,---,0.00,VWS V14.01,2013-03-07 15:34:00,
2013-03-07 10:39:00,34.7,31.8,30.24,NNE,30,3.0,4.5,89,0.00,,---,0.00,VWS V14.01,2013-03-07 15:39:00,
2013-03-07 10:44:00,34.5,31.6,30.25,NNW,348,4.5,7.5,89,0.00,,---,0.00,VWS V14.01,2013-03-07 15:44:00,
2013-03-07 10:49:00,34.3,31.4,30.25,North,2,6.0,6.0,89,0.00,,---,0.00,VWS V14.01,2013-03-07 15:49:00,
2013-03-07 10:54:00,34.2,31.6,30.25,NNE,17,3.0,10.5,90,0.00,,---,0.00,VWS V14.01,2013-03-07 15:54:00,
2013-03-07 10:59:00,34.3,31.7,30.25,ENE,71,0.0,3.0,90,0.00,,---,0.00,VWS V14.01,2013-03-07 15:59:00,
2013-03-07 11:04:00,34.3,31.7,30.25,NNE,16,1.5,10.5,90,0.00,,---,0.00,VWS V14.01,2013-03-07 16:04:00,
2013-03-07 11:09:00,34.2,31.6,30.25,NE,35,4.5,6.0,90,0.00,,---,0.00,VWS V14.01,2013-03-07 16:09:00,
2013-03-07 11:14:00,34.1,31.5,30.25,NNE,33,1.5,7.5,90,0.00,,---,0.00,VWS V14.01,2013-03-07 16:14:00,
2013-03-07 11:19:00,34.2,31.6,30.25,NE,44,6.0,6.0,90,0.00,,---,0.00,VWS V14.01,2013-03-07 16:19:00,
2013-03-07 11:25:00,34.1,31.5,30.25,NNE,14,3.0,12.0,90,0.00,,---,0.00,VWS V14.01,2013-03-07 16:25:00,
2013-03-07 11:30:00,34.2,31.6,30.26,North,7,4.5,9.0,90,0.00,,---,0.00,VWS V14.01,2013-03-07 16:30:00,
2013-03-07 11:35:00,34.3,31.7,30.26,NE,46,1.5,9.0,90,0.00,,---,0.00,VWS V14.01,2013-03-07 16:35:00,
2013-03-07 11:40:00,34.5,31.6,30.26,NNE,19,3.0,4.5,89,0.00,,---,0.00,VWS V14.01,2013-03-07 16:40:00,
2013-03-07 11:45:00,34.4,31.5,30.26,NE,38,3.0,12.0,89,0.00,,---,0.00,VWS V14.01,2013-03-07 16:45:00,
2013-03-07 11:50:00,34.6,31.7,30.26,NNE,14,3.0,6.0,89,0.00,,---,0.00,VWS V14.01,2013-03-07 16:50:00,
2013-03-07 11:55:00,34.8,31.9,30.26,NE,40,1.5,9.0,89,0.00,,---,0.00,VWS V14.01,2013-03-07 16:55:00,
2013-03-07 12:00:00,34.8,31.6,30.26,NE,52,1.5,4.5,88,0.00,,---,0.00,VWS V14.01,2013-03-07 17:00:00,
2013-03-07 12:05:00,34.9,31.7,30.26,North,4,4.5,13.5,88,0.00,,---,0.00,VWS V14.01,2013-03-07 17:05:00,
2013-03-07 12:10:00,34.9,31.4,30.26,NE,35,4.5,7.5,87,0.00,,---,0.00,VWS V14.01,2013-03-07 17:10:00,
2013-03-07 12:15:00,35.2,32.0,30.26,NNE,29,1.5,12.0,88,0.00,,---,0.00,VWS V14.01,2013-03-07 17:15:00,
2013-03-07 12:20:00,35.4,31.6,30.26,NNE,32,1.5,9.0,86,0.00,,---,0.00,VWS V14.01,2013-03-07 17:20:00,
2013-03-07 12:25:00,35.3,31.5,30.26,NNE,18,3.0,9.0,86,0.00,,---,0.00,VWS V14.01,2013-03-07 17:25:00,
2013-03-07 12:30:00,35.2,31.7,30.26,NNE,23,3.0,3.0,87,0.00,,---,0.00,VWS V14.01,2013-03-07 17:30:00,
2013-03-07 12:35:00,35.1,31.3,30.26,NE,42,7.5,13.5,86,0.00,,---,0.00,VWS V14.01,2013-03-07 17:35:00,
2013-03-07 12:40:00,34.7,31.0,30.26,NNE,28,4.5,9.0,86,0.00,,---,0.00,VWS V14.01,2013-03-07 17:40:00,
2013-03-07 12:45:00,34.4,30.9,30.25,East,79,10.5,16.5,87,0.00,,---,0.00,VWS V14.01,2013-03-07 17:45:00,
2013-03-07 12:50:00,34.2,30.7,30.25,NNE,16,6.0,10.5,87,0.00,,---,0.00,VWS V14.01,2013-03-07 17:50:00,
2013-03-07 12:55:00,34.2,30.7,30.25,NNE,28,3.0,10.5,87,0.00,,---,0.00,VWS V14.01,2013-03-07 17:55:00,
2013-03-07 13:00:00,34.1,30.6,30.25,NNE,30,12.0,15.0,87,0.00,,---,0.00,VWS V14.01,2013-03-07 18:00:00,
2013-03-07 13:05:00,34.1,30.9,30.25,North,2,3.0,15.0,88,0.00,,---,0.00,VWS V14.01,2013-03-07 18:05:00,
2013-03-07 13:10:00,34.0,30.5,30.25,NNE,15,3.0,7.5,87,0.00,,---,0.00,VWS V14.01,2013-03-07 18:10:00,
2013-03-07 13:15:00,33.5,30.3,30.25,NNE,16,3.0,9.0,88,0.00,,---,0.00,VWS V14.01,2013-03-07 18:15:00,
2013-03-07 13:20:00,33.6,30.7,30.25,NE,38,1.5,6.0,89,0.00,,---,0.00,VWS V14.01,2013-03-07 18:20:00,
2013-03-07 13:25:00,33.7,30.8,30.25,NNE,33,1.5,9.0,89,0.00,,---,0.00,VWS V14.01,2013-03-07 18:25:00,
2013-03-07 13:30:00,33.6,30.4,30.26,NE,36,4.5,6.0,88,0.00,,---,0.00,VWS V14.01,2013-03-07 18:30:00,
2013-03-07 13:35:00,33.4,30.2,30.26,NE,51,6.0,7.5,88,0.00,,---,0.00,VWS V14.01,2013-03-07 18:35:00,
2013-03-07 13:40:00,33.1,30.2,30.26,NNE,23,9.0,9.0,89,0.00,,---,0.00,VWS V14.01,2013-03-07 18:40:00,
2013-03-07 13:45:00,33.1,30.2,30.26,NNE,23,7.5,10.5,89,0.00,,---,0.00,VWS V14.01,2013-03-07 18:45:00,
2013-03-07 13:50:00,32.9,30.0,30.26,NNE,29,0.0,4.5,89,0.00,,---,0.00,VWS V14.01,2013-03-07 18:50:00,
2013-03-07 13:55:00,32.9,30.0,30.26,NNE,26,6.0,13.5,89,0.00,,---,0.00,VWS V14.01,2013-03-07 18:55:00,
2013-03-07 14:00:00,33.0,30.1,30.26,NNE,26,3.0,3.0,89,0.00,,---,0.00,VWS V14.01,2013-03-07 19:00:00,
2013-03-07 14:05:00,33.0,29.6,30.26,NNE,21,4.5,12.0,87,0.00,,---,0.00,VWS V14.01,2013-03-07 19:05:00,
2013-03-07 14:10:00,33.0,29.8,30.26,ENE,61,1.5,7.5,88,0.00,,---,0.00,VWS V14.01,2013-03-07 19:10:00,
2013-03-07 14:15:00,33.2,29.8,30.26,NNE,19,0.0,10.5,87,0.00,,---,0.00,VWS V14.01,2013-03-07 19:15:00,
2013-03-07 14:20:00,33.4,30.0,30.26,North,2,3.0,6.0,87,0.00,,---,0.00,VWS V14.01,2013-03-07 19:20:00,
2013-03-07 14:25:00,33.7,30.0,30.26,NNE,14,1.5,6.0,86,0.00,,---,0.00,VWS V14.01,2013-03-07 19:25:00,
2013-03-07 14:31:00,33.8,30.1,30.26,NE,49,3.0,9.0,86,0.00,,---,0.00,VWS V14.01,2013-03-07 19:31:00,
2013-03-07 14:36:00,33.8,29.8,30.26,NNE,23,3.0,9.0,85,0.00,,---,0.00,VWS V14.01,2013-03-07 19:36:00,
2013-03-07 14:41:00,33.6,29.3,30.26,East,92,3.0,10.5,84,0.00,,---,0.00,VWS V14.01,2013-03-07 19:41:00,
2013-03-07 14:46:00,33.6,29.6,30.26,NE,54,1.5,10.5,85,0.00,,---,0.00,VWS V14.01,2013-03-07 19:46:00,
2013-03-07 14:51:00,33.9,29.6,30.26,NE,39,3.0,9.0,84,0.00,,---,0.00,VWS V14.01,2013-03-07 19:51:00,
2013-03-07 14:56:00,33.9,29.6,30.26,NE,52,10.5,10.5,84,0.00,,---,0.00,VWS V14.01,2013-03-07 19:56:00,
2013-03-07 15:01:00,34.1,29.5,30.26,NNW,343,3.0,10.5,83,0.00,,---,0.00,VWS V14.01,2013-03-07 20:01:00,
2013-03-07 15:06:00,34.2,29.6,30.26,NNE,30,0.0,10.5,83,0.00,,---,0.00,VWS V14.01,2013-03-07 20:06:00,
2013-03-07 15:11:00,34.4,29.5,30.26,North,3,1.5,4.5,82,0.00,,---,0.00,VWS V14.01,2013-03-07 20:11:00,
2013-03-07 15:16:00,34.4,29.2,30.27,NE,38,1.5,7.5,81,0.00,,---,0.00,VWS V14.01,2013-03-07 20:16:00,
2013-03-07 15:21:00,34.2,28.7,30.27,NE,42,1.5,6.0,80,0.00,,---,0.00,VWS V14.01,2013-03-07 20:21:00,
2013-03-07 15:26:00,34.2,28.7,30.27,NE,50,6.0,13.5,80,0.00,,---,0.00,VWS V14.01,2013-03-07 20:26:00,
2013-03-07 15:31:00,34.0,28.8,30.27,ENE,69,1.5,10.5,81,0.00,,---,0.00,VWS V14.01,2013-03-07 20:31:00,
2013-03-07 15:36:00,34.0,28.8,30.27,NNE,16,6.0,10.5,81,0.00,,---,0.00,VWS V14.01,2013-03-07 20:36:00,
2013-03-07 15:41:00,34.0,28.5,30.27,NNE,19,4.5,6.0,80,0.00,,---,0.00,VWS V14.01,2013-03-07 20:41:00,
2013-03-07 15:46:00,33.8,28.3,30.27,NE,42,7.5,9.0,80,0.00,,---,0.00,VWS V14.01,2013-03-07 20:46:00,
2013-03-07 15:51:00,33.6,27.8,30.27,NE,40,4.5,16.5,79,0.00,,---,0.00,VWS V14.01,2013-03-07 20:51:00,
2013-03-07 15:56:00,33.5,28.0,30.27,NNE,23,7.5,16.5,80,0.00,,---,0.00,VWS V14.01,2013-03-07 20:56:00,
2013-03-07 16:01:00,33.6,27.8,30.28,North,9,4.5,9.0,79,0.00,,---,0.00,VWS V14.01,2013-03-07 21:01:00,
2013-03-07 16:06:00,33.7,27.6,30.28,NE,47,3.0,10.5,78,0.00,,---,0.00,VWS V14.01,2013-03-07 21:06:00,
2013-03-07 16:11:00,34.2,28.1,30.28,NNE,29,0.0,7.5,78,0.00,,---,0.00,VWS V14.01,2013-03-07 21:11:00,
2013-03-07 16:16:00,34.3,27.2,30.28,East,89,7.5,13.5,75,0.00,,---,0.00,VWS V14.01,2013-03-07 21:16:00,
2013-03-07 16:21:00,34.1,27.0,30.28,NE,49,0.0,4.5,75,0.00,,---,0.00,VWS V14.01,2013-03-07 21:21:00,
2013-03-07 16:26:00,34.2,26.8,30.28,ENE,60,0.0,7.5,74,0.00,,---,0.00,VWS V14.01,2013-03-07 21:26:00,
2013-03-07 16:31:00,33.9,26.2,30.28,East,80,6.0,6.0,73,0.00,,---,0.00,VWS V14.01,2013-03-07 21:31:00,
2013-03-07 16:36:00,33.7,26.0,30.28,East,85,1.5,10.5,73,0.00,,---,0.00,VWS V14.01,2013-03-07 21:36:00,
2013-03-07 16:41:00,33.6,25.9,30.28,East,87,1.5,7.5,73,0.00,,---,0.00,VWS V14.01,2013-03-07 21:41:00,
2013-03-07 16:46:00,33.6,25.9,30.28,ENE,78,3.0,7.5,73,0.00,,---,0.00,VWS V14.01,2013-03-07 21:46:00,
2013-03-07 16:51:00,33.6,26.2,30.28,NNE,28,3.0,6.0,74,0.00,,---,0.00,VWS V14.01,2013-03-07 21:51:00,
2013-03-07 16:56:00,33.6,26.2,30.28,NE,45,4.5,9.0,74,0.00,,---,0.00,VWS V14.01,2013-03-07 21:56:00,
2013-03-07 17:01:00,33.5,26.4,30.28,NNE,19,1.5,10.5,75,0.00,,---,0.00,VWS V14.01,2013-03-07 22:01:00,
2013-03-07 17:07:00,33.5,26.8,30.28,NNE,32,3.0,10.5,76,0.00,,---,0.00,VWS V14.01,2013-03-07 22:07:00,
2013-03-07 17:12:00,33.4,26.7,30.28,ENE,75,1.5,6.0,76,0.00,,---,0.00,VWS V14.01,2013-03-07 22:12:00,
2013-03-07 17:17:00,33.3,26.6,30.28,NNE,18,1.5,9.0,76,0.00,,---,0.00,VWS V14.01,2013-03-07 22:17:00,
2013-03-07 17:22:00,33.2,26.5,30.28,ENE,57,3.0,9.0,76,0.00,,---,0.00,VWS V14.01,2013-03-07 22:22:00,
2013-03-07 17:27:00,33.2,27.1,30.28,NE,39,1.5,9.0,78,0.00,,---,0.00,VWS V14.01,2013-03-07 22:27:00,
2013-03-07 17:32:00,33.1,26.7,30.29,NNE,23,3.0,9.0,77,0.00,,---,0.00,VWS V14.01,2013-03-07 22:32:00,
2013-03-07 17:37:00,33.0,26.6,30.29,NE,48,1.5,9.0,77,0.00,,---,0.00,VWS V14.01,2013-03-07 22:37:00,
2013-03-07 17:42:00,33.0,27.2,30.29,NE,38,3.0,3.0,79,0.00,,---,0.00,VWS V14.01,2013-03-07 22:42:00,
2013-03-07 17:47:00,33.0,27.2,30.30,NE,38,1.5,3.0,79,0.00,,---,0.00,VWS V14.01,2013-03-07 22:47:00,
2013-03-07 17:52:00,32.9,27.1,30.30,NNE,28,3.0,6.0,79,0.00,,---,0.00,VWS V14.01,2013-03-07 22:52:00,
2013-03-07 17:57:00,32.9,27.1,30.30,NE,40,1.5,7.5,79,0.00,,---,0.00,VWS V14.01,2013-03-07 22:57:00,
2013-03-07 18:02:00,32.8,27.0,30.30,NE,40,0.0,4.5,79,0.00,,---,0.00,VWS V14.01,2013-03-07 23:02:00,
2013-03-07 18:07:00,32.8,27.0,30.30,NE,40,0.0,4.5,79,0.00,,---,0.00,VWS V14.01,2013-03-07 23:07:00,
2013-03-07 18:12:00,32.7,26.9,30.30,NE,38,0.0,7.5,79,0.00,,---,0.00,VWS V14.01,2013-03-07 23:12:00,
2013-03-07 18:17:00,32.7,27.2,30.30,NE,34,3.0,7.5,80,0.00,,---,0.00,VWS V14.01,2013-03-07 23:17:00,
2013-03-07 18:22:00,32.7,27.2,30.30,NNE,24,3.0,6.0,80,0.00,,---,0.00,VWS V14.01,2013-03-07 23:22:00,
2013-03-07 18:27:00,32.6,27.1,30.30,NE,36,1.5,9.0,80,0.00,,---,0.00,VWS V14.01,2013-03-07 23:27:00,
2013-03-07 18:32:00,32.4,26.9,30.31,NE,42,3.0,4.5,80,0.00,,---,0.00,VWS V14.01,2013-03-07 23:32:00,
2013-03-07 18:37:00,32.4,26.9,30.31,NE,48,3.0,13.5,80,0.00,,---,0.00,VWS V14.01,2013-03-07 23:37:00,
2013-03-07 18:42:00,32.3,26.8,30.31,NE,49,0.0,9.0,80,0.00,,---,0.00,VWS V14.01,2013-03-07 23:42:00,
2013-03-07 18:47:00,32.3,26.5,30.31,NNE,23,3.0,9.0,79,0.00,,---,0.00,VWS V14.01,2013-03-07 23:47:00,
2013-03-07 18:52:00,32.2,26.4,30.31,ENE,70,3.0,10.5,79,0.00,,---,0.00,VWS V14.01,2013-03-07 23:52:00,
2013-03-07 18:57:00,32.1,26.3,30.31,North,7,1.5,10.5,79,0.00,,---,0.00,VWS V14.01,2013-03-07 23:57:00,
2013-03-07 19:02:00,31.9,25.8,30.31,ENE,72,3.0,9.0,78,0.00,,---,0.00,VWS V14.01,2013-03-08 00:02:00,
2013-03-07 19:07:00,31.8,26.0,30.31,NNE,27,0.0,9.0,79,0.00,,---,0.00,VWS V14.01,2013-03-08 00:07:00,
2013-03-07 19:12:00,31.8,26.4,30.31,NE,49,1.5,9.0,80,0.00,,---,0.00,VWS V14.01,2013-03-08 00:12:00,
2013-03-07 19:17:00,31.7,26.5,30.32,NE,36,1.5,9.0,81,0.00,,---,0.00,VWS V14.01,2013-03-08 00:17:00,
2013-03-07 19:22:00,31.7,26.5,30.32,NNE,33,0.0,7.5,81,0.00,,---,0.00,VWS V14.01,2013-03-08 00:22:00,
2013-03-07 19:27:00,31.6,26.8,30.32,NE,40,0.0,7.5,82,0.00,,---,0.00,VWS V14.01,2013-03-08 00:27:00,
2013-03-07 19:32:00,31.6,26.8,30.32,NE,35,1.5,3.0,82,0.00,,---,0.00,VWS V14.01,2013-03-08 00:32:00,
2013-03-07 19:37:00,31.6,26.8,30.32,NNE,16,7.5,7.5,82,0.00,,---,0.00,VWS V14.01,2013-03-08 00:37:00,
2013-03-07 19:42:00,31.6,26.5,30.32,ENE,68,1.5,9.0,81,0.00,,---,0.00,VWS V14.01,2013-03-08 00:42:00,
2013-03-07 19:47:00,31.6,26.5,30.32,North,353,4.5,9.0,81,0.00,,---,0.00,VWS V14.01,2013-03-08 00:47:00,
2013-03-07 19:52:00,31.7,26.2,30.32,NE,39,3.0,9.0,80,0.00,,---,0.00,VWS V14.01,2013-03-08 00:52:00,
2013-03-07 19:57:00,31.7,26.5,30.32,NE,35,1.5,9.0,81,0.00,,---,0.00,VWS V14.01,2013-03-08 00:57:00,
2013-03-07 20:02:00,31.7,26.5,30.31,NNE,16,3.0,9.0,81,0.00,,---,0.00,VWS V14.01,2013-03-08 01:02:00,
2013-03-07 20:07:00,31.7,26.8,30.31,ENE,70,4.5,9.0,82,0.00,,---,0.00,VWS V14.01,2013-03-08 01:07:00,
2013-03-07 20:12:00,31.7,26.5,30.31,NNE,27,0.0,7.5,81,0.00,,---,0.00,VWS V14.01,2013-03-08 01:12:00,
2013-03-07 20:17:00,31.7,26.5,30.31,NE,37,3.0,7.5,81,0.00,,---,0.00,VWS V14.01,2013-03-08 01:17:00,
2013-03-07 20:22:00,31.7,26.5,30.31,ENE,59,0.0,9.0,81,0.00,,---,0.00,VWS V14.01,2013-03-08 01:22:00,
2013-03-07 20:27:00,31.7,26.2,30.31,NE,56,4.5,9.0,80,0.00,,---,0.00,VWS V14.01,2013-03-08 01:27:00,
2013-03-07 20:33:00,31.7,25.9,30.32,NNE,16,3.0,6.0,79,0.00,,---,0.00,VWS V14.01,2013-03-08 01:33:00,
2013-03-07 20:38:00,31.7,25.9,30.32,NNE,26,4.5,6.0,79,0.00,,---,0.00,VWS V14.01,2013-03-08 01:38:00,
2013-03-07 20:43:00,31.7,25.6,30.32,NNE,29,10.5,10.5,78,0.00,,---,0.00,VWS V14.01,2013-03-08 01:43:00,
2013-03-07 20:48:00,31.7,25.6,30.32,NNE,27,1.5,10.5,78,0.00,,---,0.00,VWS V14.01,2013-03-08 01:48:00,
2013-03-07 20:53:00,31.7,25.6,30.32,NE,35,1.5,7.5,78,0.00,,---,0.00,VWS V14.01,2013-03-08 01:53:00,
2013-03-07 20:58:00,31.6,25.5,30.32,NE,34,3.0,7.5,78,0.00,,---,0.00,VWS V14.01,2013-03-08 01:58:00,
2013-03-07 21:03:00,31.6,25.5,30.32,NE,35,0.0,4.5,78,0.00,,---,0.00,VWS V14.01,2013-03-08 02:03:00,
2013-03-07 21:08:00,31.6,25.5,30.32,NNE,19,1.5,6.0,78,0.00,,---,0.00,VWS V14.01,2013-03-08 02:08:00,
2013-03-07 21:13:00,31.5,25.4,30.32,NE,45,0.0,3.0,78,0.00,,---,0.00,VWS V14.01,2013-03-08 02:13:00,
2013-03-07 21:18:00,31.5,25.4,30.32,NE,50,1.5,4.5,78,0.00,,---,0.00,VWS V14.01,2013-03-08 02:18:00,
2013-03-07 21:23:00,31.5,25.4,30.32,NNE,27,0.0,6.0,78,0.00,,---,0.00,VWS V14.01,2013-03-08 02:23:00,
2013-03-07 21:28:00,31.4,25.4,30.32,ENE,57,1.5,6.0,78,0.00,,---,0.00,VWS V14.01,2013-03-08 02:28:00,
2013-03-07 21:33:00,31.4,25.4,30.32,NE,35,1.5,9.0,78,0.00,,---,0.00,VWS V14.01,2013-03-08 02:33:00,
2013-03-07 21:38:00,31.4,25.6,30.32,NNE,31,3.0,10.5,79,0.00,,---,0.00,VWS V14.01,2013-03-08 02:38:00,
2013-03-07 21:43:00,31.3,25.6,30.32,NNE,21,1.5,7.5,79,0.00,,---,0.00,VWS V14.01,2013-03-08 02:43:00,
2013-03-07 21:48:00,31.3,25.9,30.32,ENE,61,3.0,7.5,80,0.00,,---,0.00,VWS V14.01,2013-03-08 02:48:00,
2013-03-07 21:53:00,31.3,26.2,30.32,NE,38,0.0,7.5,81,0.00,,---,0.00,VWS V14.01,2013-03-08 02:53:00,
2013-03-07 21:58:00,31.2,26.1,30.32,NE,38,4.5,7.5,81,0.00,,---,0.00,VWS V14.01,2013-03-08 02:58:00,
2013-03-07 22:03:00,31.2,26.4,30.32,NNE,33,0.0,6.0,82,0.00,,---,0.00,VWS V14.01,2013-03-08 03:03:00,
2013-03-07 22:08:00,31.2,26.4,30.32,NNE,25,7.5,7.5,82,0.00,,---,0.00,VWS V14.01,2013-03-08 03:08:00,
2013-03-07 22:13:00,31.1,26.3,30.32,ENE,62,1.5,7.5,82,0.00,,---,0.00,VWS V14.01,2013-03-08 03:13:00,
2013-03-07 22:18:00,31.0,26.2,30.32,ENE,58,1.5,9.0,82,0.00,,---,0.00,VWS V14.01,2013-03-08 03:18:00,
2013-03-07 22:23:00,31.0,26.2,30.32,NNE,27,4.5,6.0,82,0.00,,---,0.00,VWS V14.01,2013-03-08 03:23:00,
2013-03-07 22:28:00,30.9,26.1,30.32,NE,41,1.5,6.0,82,0.00,,---,0.00,VWS V14.01,2013-03-08 03:28:00,
2013-03-07 22:33:00,30.9,26.1,30.32,NE,34,1.5,4.5,82,0.00,,---,0.00,VWS V14.01,2013-03-08 03:33:00,
2013-03-07 22:38:00,30.9,26.1,30.32,NNE,31,7.5,10.5,82,0.00,,---,0.00,VWS V14.01,2013-03-08 03:38:00,
2013-03-07 22:43:00,30.9,26.1,30.31,NE,37,0.0,10.5,82,0.00,,---,0.00,VWS V14.01,2013-03-08 03:43:00,
2013-03-07 22:48:00,30.8,25.7,30.31,NE,38,3.0,10.5,81,0.00,,---,0.00,VWS V14.01,2013-03-08 03:48:00,
2013-03-07 22:53:00,30.8,25.7,30.31,NNE,28,3.0,7.5,81,0.00,,---,0.00,VWS V14.01,2013-03-08 03:53:00,
2013-03-07 22:58:00,30.8,25.7,30.31,NNE,16,0.0,7.5,81,0.00,,---,0.00,VWS V14.01,2013-03-08 03:58:00,
2013-03-07 23:03:00,30.8,25.7,30.31,NNE,30,0.0,4.5,81,0.00,,---,0.00,VWS V14.01,2013-03-08 04:03:00,
2013-03-07 23:08:00,30.7,25.3,30.31,NE,38,0.0,7.5,80,0.00,,---,0.00,VWS V14.01,2013-03-08 04:08:00,
2013-03-07 23:13:00,30.6,24.9,30.31,NNE,32,1.5,9.0,79,0.00,,---,0.00,VWS V14.01,2013-03-08 04:13:00,
2013-03-07 23:18:00,30.6,24.6,30.31,NNE,19,1.5,9.0,78,0.00,,---,0.00,VWS V14.01,2013-03-08 04:18:00,
2013-03-07 23:23:00,30.5,23.9,30.31,NNE,33,3.0,9.0,76,0.00,,---,0.00,VWS V14.01,2013-03-08 04:23:00,
2013-03-07 23:28:00,30.5,23.9,30.31,NNE,33,1.5,9.0,76,0.00,,---,0.00,VWS V14.01,2013-03-08 04:28:00,
2013-03-07 23:33:00,30.5,23.9,30.31,NNE,15,3.0,7.5,76,0.00,,---,0.00,VWS V14.01,2013-03-08 04:33:00,
2013-03-07 23:38:00,30.5,23.9,30.31,NE,43,0.0,7.5,76,0.00,,---,0.00,VWS V14.01,2013-03-08 04:38:00,
2013-03-07 23:43:00,30.4,23.8,30.31,NNE,33,0.0,6.0,76,0.00,,---,0.00,VWS V14.01,2013-03-08 04:43:00,
2013-03-07 23:48:00,30.4,23.8,30.31,NE,40,10.5,10.5,76,0.00,,---,0.00,VWS V14.01,2013-03-08 04:48:00,
2013-03-07 23:54:00,30.4,23.8,30.31,NNE,21,7.5,13.5,76,0.00,,---,0.00,VWS V14.01,2013-03-08 04:54:00,
2013-03-07 23:59:00,30.4,23.8,30.31,NE,38,0.0,0.0,76,0.00,,---,0.00,VWS V14.01,2013-03-08 04:59:00,